Starlink 30150

operational
NORAD ID: 57621 Int'l Des: 2023-119 Owner: SPXS Country: US Constellation: starlink
LEOCIRCULAR

Starlink 30150について

説明を読み込み中...

リアルタイム位置

3D地球を読み込み中...

次回通過

高度履歴

Altitude vs Time

uPlot chart will show altitude changes over time

軌道要素

1 57621U 23119V 26034.92883436 .00002023 00000-0 16473-3 0 9996
2 57621 42.9971 265.3902 0000726 253.9568 106.1194 15.02543153138008
Epoch: Feb 3, 2026 • Age: 13 hours

現在のステータス

高度 559.3 km
速度 7.58 km/s
衛星直下点 -2.77°S, 40.65°W
打ち上げ日 Aug 11, 2023
運用期間 2.4 years
タイプ internet

技術仕様

分類 Payload
質量 730.00 kg
乾燥質量 700.00 kg
総質量 730.00 kg
長さ 0.30 m
直径 4.10 m
スパン 29.00 m
形状 Box + pan
製造者 SPXS
バスタイプ Starlink V2M
フェーズステータス In Orbit
所有者/国 SPXS/US

大規模コンステレーション

Loading constellations...